Regional Weather Roundup
Issued by NWS Newport/Morehead, NC

Current Version | Previous Version | Graphics & Text | Print | Product List | Glossary On
Versions: 1 2 3 4 5 6 7 8 9 10 11 12 13 14 15 16 17 18 19 20 21 22 23 24 25 26 27 28 29 30 31 32 33 34 35 36 37 38 39 40 41 42 43 44 45 46 47 48 49 50
000 ASUS42 KMHX 280025 RWRMHX WEATHER ROUNDUP FOR EASTERN NORTH CAROLINA NATIONAL WEATHER SERVICE NEWPORT/MOREHEAD CITY NC 800 PM EDT TUE JUN 27 2017 NOTE: "FAIR" INDICATES FEW OR NO CLOUDS BELOW 12,000 FEET WITH NO SIGNIFICANT WEATHER AND/OR OBSTRUCTIONS TO VISIBILITY NCZ015>017-031-032-045>047-102-103-280100- NORTH COAST CITY SKY/WX TMP DP RH WIND PRES REMARKS EDENTON PTCLDY 80 60 50 NW6 30.01R ELIZABETH CITY CLOUDY 75 67 76 NE9 30.00R KITTY HAWK CLOUDY 70 64 79 CALM 29.98F MANTEO CLOUDY 71 68 90 CALM 29.99F $$ NCZ045>047-081-094-103-104-280100- CENTRAL COAST CITY SKY/WX TMP DP RH WIND PRES REMARKS FRISCO NOT AVBL $$ NCZ095-097-098-100-101-280100- SOUTHERN COAST CITY SKY/WX TMP DP RH WIND PRES REMARKS BEAUFORT MOCLDY 79 65 62 SW6 29.99S CEDAR ISLAND NOT AVBL JACKSONVILLE PTCLDY 78 68 71 CALM 29.99F PINEY ISLAND CLOUDY N/A N/A N/A S5 29.99S WILMINGTON CLEAR 78 66 66 S6 30.00S $$ NCZ011>013-027>030-043-044-078>080-089-090>093-098-280100- COASTAL PLAIN CITY SKY/WX TMP DP RH WIND PRES REMARKS AHOSKIE N/A 73 60 65 CALM 30.02S CLINTON CLOUDY 80 63 56 CALM 30.01S ELIZABETHTOWN NOT AVBL GOLDSBORO CLOUDY 81 60 48 W6 29.99F GREENVILLE CLOUDY 79 57 47 CALM 30.02F HAVELOCK CLEAR 78 64 61 SW3 30.01S KENANSVILLE PTCLDY 79 61 53 CALM 30.01S KINSTON CLOUDY 81 63 54 CALM 30.01S NEW BERN PTCLDY 78 69 73 W3 30.01R RICHLANDS PTCLDY 78 69 73 CALM 30.01S ROCKY MOUNT PTCLDY 77 58 51 N10 30.02S WASHINGTON PTCLDY N/A N/A N/A NW3 30.01R WHITEVILLE CLOUDY 80 69 69 S3 30.01R $$ AMZ130-135-150-152-154-156-158-170-250-252-270-ANZ085-086-088-633-658-670-280100- MARINE OBSERVATIONS STATION/POSITION TIME TEMP WIND PRES WAVE SWELL AIR SEA DIR/SP/G HT/PER HT/PER (UTC) (F) (DEG/KT/KT) (MB) (FT/S) (FT/S) CHESAPEAKE LIGHT NOT AVBL 64 E VA BEACH 2350 72 77 310/ 4/ 8 1016.2 1/ 8 2/ 8 DUCK 0000 73 75 50/ 11/ 13 1015.5 2 E DUCK NOT AVBL OREGON INLET 0000 76 78 330/ 7/ 12 1015.5 13E OREGON INLT 2348 74 N/A 1/ 8 2/ 8 HATTERAS CG 0000 79 80 220/ 6/ 10 1015.4 DIAMOND BUOY 2350 80 82 230/ 4/ 6 1015.6 2/ 7 2/ 7 CAPE LOOKOUT 0000 79 210/ 5/ 5 1015.4 BEAUFORT LAB 0000 80 80 230/ 2/ 6 1015.0 30 SE NEW RVR IN 0008 80 82 210/ 6/ 8 1015.9 30 SE NEW RVR IN 0013 82 N/A 2/ 7 27 SE WRIGHTSVLE 0008 80 82 180/ 6/ 8 1015.6 5 SE WRIGHTSVLE 0008 80 80 210/ 6/ 8 1015.8 225 S CAPE HAT 2350 78 80 200/ 6/ 6 1016.3 3/ 6 3/ 6 41 SE CHARLESTON 0010 80 81 80/ 8/ 10 1015.9 $$

USA.gov is the U.S. government's official web portal to all federal, state and local government web resources and services.